Temp
-18 -19 -19 -20 -20 -20 -21 -21 -22 -22 -22 -22 -23 -23 -23 -23 -23 -23 -23 -23 -23 -23 -23 -23 -24 -24 -24 -24 -23 -23 -23 -24 -24 -24 -24 -24 -24 -24 -24 -24 -24 -24 -24 -24 -24 -24 -23 -23 -23 -23 -22 -22 -22 -22
-19 -20 -20 -20 -20 -21 -21 -21 -22 -22 -23 -23 -23 -23 -24 -24 -24 -24 -24 -24 -24 -24 -24 -24 -24 -24 -24 -24 -24 -24 -24 -24 -24 -23 -24 -24 -24 -24 -24 -24 -24 -24 -24 -24 -24 -24 -24 -24 -23 -23 -23 -23 -23 -23
-20 -20 -20 -21 -21 -21 -22 -22 -22 -23 -23 -23 -24 -24 -24 -24 -24 -25 -25 -25 -25 -24 -24 -24 -24 -24 -24 -24 -24 -24 -24 -24 -24 -24 -24 -24 -24 -24 -24 -24 -24 -24 -24 -24 -24 -23 -24 -24 -24 -23 -23 -23 -23 -23
-20 -20 -21 -21 -22 -22 -22 -22 -23 -23 -23 -24 -24 -24 -24 -24 -25 -25 -25 -25 -25 -25 -25 -25 -25 -24 -25 -24 -24 -24 -24 -24 -24 -24 -24 -24 -24 -24 -24 -24 -24 -24 -24 -24 -24 -24 -24 -24 -24 -24 -24 -24 -24 -24
-20 -21 -21 -22 -22 -22 -23 -23 -23 -23 -24 -24 -24 -24 -24 -24 -25 -25 -25 -25 -25 -26 -26 -26 -25 -25 -25 -25 -25 -25 -25 -25 -25 -25 -25 -25 -25 -25 -25 -25 -24 -25 -25 -25 -24 -24 -24 -24 -24 -24 -24 -24 -24 -24
-21 -21 -22 -22 -22 -23 -23 -23 -23 -23 -24 -24 -24 -24 -25 -25 -25 -24 -24 -24 -25 -25 -26 -26 -26 -26 -26 -26 -26 -26 -26 -25 -25 -25 -25 -25 -25 -25 -25 -25 -25 -25 -25 -25 -25 -25 -25 -25 -25 -25 -25 -25 -25 -25
-21 -22 -22 -23 -23 -23 -23 -23 -23 -24 -24 -24 -24 -24 -26 -25 -25 -25 -24 -24 -25 -26 -27 -27 -27 -27 -27 -27 -26 -27 -27 -26 -26 -26 -26 -26 -26 -26 -26 -26 -26 -26 -26 -26 -26 -26 -26 -26 -26 -26 -26 -27 -27 -27
-22 -22 -23 -23 -23 -24 -23 -24 -24 -24 -24 -24 -25 -26 -26 -25 -25 -25 -25 -25 -25 -26 -27 -27 -28 -28 -27 -27 -27 -27 -27 -27 -27 -27 -27 -27 -27 -27 -27 -27 -27 -27 -27 -27 -27 -28 -28 -28 -28 -28 -28 -28 -29 -29
-22 -23 -23 -24 -24 -24 -24 -24 -24 -24 -24 -25 -26 -27 -26 -26 -26 -26 -26 -26 -26 -27 -27 -27 -28 -28 -28 -28 -28 -28 -28 -28 -28 -28 -28 -28 -28 -28 -28 -28 -28 -29 -29 -29 -29 -30 -30 -30 -30 -31 -31 -31 -31 -31
-22 -23 -24 -24 -24 -24 -24 -24 -24 -24 -25 -26 -27 -27 -27 -27 -27 -27 -27 -27 -27 -28 -28 -28 -28 -29 -29 -29 -29 -29 -29 -29 -29 -29 -30 -29 -30 -30 -30 -31 -31 -31 -31 -32 -32 -32 -32 -32 -32 -32 -32 -32 -33 -33
-23 -24 -24 -24 -24 -24 -24 -24 -24 -25 -26 -27 -28 -28 -28 -27 -28 -28 -28 -28 -28 -29 -29 -29 -29 -30 -30 -30 -30 -30 -30 -30 -30 -31 -31 -31 -31 -32 -32 -32 -32 -32 -33 -33 -33 -33 -33 -33 -33 -33 -33 -33 -33 -33
-24 -24 -24 -24 -24 -24 -24 -24 -24 -25 -26 -28 -29 -28 -28 -28 -28 -28 -28 -29 -29 -29 -30 -30 -30 -30 -30 -30 -31 -31 -31 -31 -31 -31 -32 -32 -32 -32 -32 -32 -32 -33 -33 -33 -33 -33 -33 -33 -33 -33 -34 -34 -34 -34
-24 -25 -24 -24 -24 -24 -24 -25 -25 -25 -27 -28 -29 -29 -28 -29 -29 -29 -29 -30 -30 -30 -30 -30 -30 -31 -31 -31 -31 -31 -31 -32 -32 -32 -32 -33 -33 -33 -33 -33 -33 -34 -34 -34 -34 -34 -34 -34 -34 -34 -34 -34 -35 -35
-25 -25 -24 -24 -25 -25 -25 -25 -25 -26 -27 -28 -28 -29 -29 -29 -29 -30 -30 -30 -30 -31 -31 -31 -31 -32 -32 -32 -32 -32 -33 -33 -33 -33 -34 -34 -34 -34 -35 -35 -35 -35 -35 -35 -35 -35 -35 -35 -35 -36 -36 -36 -36 -36
-25 -25 -25 -25 -25 -25 -25 -25 -26 -26 -27 -28 -29 -29 -29 -30 -30 -30 -30 -31 -31 -31 -32 -32 -32 -32 -32 -33 -33 -33 -34 -34 -34 -35 -35 -35 -36 -36 -36 -36 -36 -36 -36 -36 -36 -36 -36 -36 -37 -37 -37 -37 -37 -37
-25 -25 -25 -25 -25 -25 -26 -26 -26 -27 -28 -28 -29 -29 -30 -30 -30 -30 -31 -31 -31 -32 -32 -32 -32 -33 -33 -33 -34 -35 -35 -35 -36 -36 -36 -36 -36 -36 -36 -36 -37 -37 -37 -37 -37 -37 -38 -38 -38 -38 -38 -38 -39 -39
-25 -25 -25 -25 -25 -25 -26 -26 -26 -28 -29 -29 -29 -30 -30 -30 -30 -31 -31 -31 -32 -32 -33 -33 -33 -33 -34 -34 -35 -35 -35 -35 -36 -36 -36 -36 -36 -37 -37 -37 -38 -38 -38 -38 -38 -39 -39 -39 -39 -39 -39 -40 -40 -39
-25 -25 -25 -25 -26 -26 -26 -26 -27 -29 -29 -30 -30 -30 -30 -31 -31 -31 -32 -32 -32 -32 -33 -33 -33 -34 -35 -35 -35 -36 -36 -36 -36 -36 -37 -37 -37 -38 -38 -38 -38 -39 -39 -39 -40 -40 -40 -40 -40 -40 -40 -40 -40 -40
-25 -26 -26 -26 -27 -26 -26 -27 -28 -30 -30 -31 -31 -31 -31 -31 -31 -32 -32 -32 -33 -33 -33 -33 -34 -34 -35 -35 -36 -36 -36 -36 -37 -37 -38 -38 -38 -38 -39 -39 -39 -40 -40 -40 -40 -40 -40 -40 -40 -41 -41 -41 -41 -41
-26 -26 -27 -27 -27 -27 -27 -28 -29 -30 -31 -31 -31 -31 -31 -32 -32 -32 -33 -33 -33 -33 -34 -34 -34 -35 -35 -36 -36 -36 -37 -37 -38 -38 -38 -39 -39 -39 -39 -40 -40 -40 -40 -41 -41 -41 -41 -41 -41 -41 -41 -41 -41 -42
-27 -27 -27 -27 -27 -28 -28 -29 -30 -31 -31 -31 -31 -31 -32 -32 -32 -33 -33 -34 -34 -34 -34 -34 -35 -36 -36 -36 -36 -37 -38 -38 -39 -39 -39 -40 -40 -40 -40 -41 -41 -41 -41 -41 -41 -41 -41 -41 -41 -41 -42 -42 -41 -42
-27 -27 -27 -28 -28 -29 -29 -30 -31 -32 -32 -32 -32 -32 -32 -32 -33 -33 -33 -34 -34 -34 -34 -35 -36 -36 -36 -37 -37 -38 -39 -39 -40 -40 -40 -40 -41 -41 -41 -41 -41 -41 -42 -42 -42 -42 -42 -42 -42 -42 -42 -42 -42 -42
-28 -28 -28 -28 -29 -29 -30 -31 -32 -32 -32 -32 -32 -32 -32 -33 -33 -33 -34 -34 -34 -35 -36 -36 -36 -36 -36 -37 -38 -39 -39 -40 -41 -41 -41 -41 -41 -42 -42 -42 -42 -42 -42 -42 -42 -43 -43 -43 -42 -42 -42 -42 -42 -42
-28 -28 -28 -29 -30 -30 -30 -31 -32 -32 -32 -32 -32 -33 -33 -33 -33 -34 -34 -34 -35 -36 -36 -36 -36 -36 -37 -38 -39 -40 -40 -41 -41 -42 -42 -42 -42 -42 -42 -42 -42 -42 -42 -42 -42 -42 -42 -43 -43 -43 -43 -42 -42 -42
-29 -29 -29 -30 -30 -31 -31 -32 -32 -32 -32 -33 -33 -33 -33 -34 -34 -34 -34 -35 -36 -36 -36 -36 -36 -37 -38 -39 -39 -40 -41 -41 -42 -42 -42 -43 -43 -43 -43 -43 -43 -43 -43 -42 -43 -43 -43 -43 -43 -43 -43 -42 -42 -42
-29 -29 -30 -30 -31 -31 -32 -32 -32 -33 -33 -33 -34 -34 -34 -34 -34 -35 -35 -36 -36 -36 -36 -37 -37 -38 -38 -39 -40 -40 -41 -42 -42 -43 -43 -43 -43 -43 -43 -43 -43 -44 -44 -43 -43 -43 -43 -43 -43 -43 -43 -42 -42 -42
-30 -30 -31 -31 -31 -32 -33 -33 -33 -34 -34 -34 -34 -34 -35 -35 -35 -36 -36 -36 -36 -36 -37 -37 -38 -38 -39 -39 -40 -41 -41 -42 -42 -43 -43 -43 -43 -43 -43 -43 -43 -43 -43 -43 -43 -43 -43 -43 -43 -43 -43 -42 -42 -42
-31 -31 -31 -32 -32 -33 -33 -34 -34 -34 -34 -34 -35 -35 -35 -36 -36 -36 -37 -37 -37 -37 -38 -38 -39 -39 -40 -40 -41 -41 -41 -42 -42 -42 -42 -43 -43 -43 -43 -43 -43 -43 -43 -43 -43 -43 -43 -43 -43 -43 -42 -42 -42 -42
-31 -32 -32 -32 -33 -33 -34 -34 -34 -35 -35 -35 -35 -35 -36 -36 -36 -37 -37 -37 -37 -38 -38 -39 -39 -40 -40 -41 -41 -41 -42 -42 -42 -42 -42 -42 -43 -43 -43 -43 -43 -43 -43 -43 -43 -43 -43 -43 -42 -42 -42 -42 -42 -42
-32 -32 -32 -33 -33 -34 -34 -34 -35 -35 -35 -35 -36 -36 -37 -37 -37 -37 -37 -38 -38 -39 -39 -40 -40 -41 -41 -42 -42 -42 -42 -42 -43 -43 -43 -43 -43 -43 -43 -43 -43 -43 -42 -43 -43 -43 -43 -43 -43 -43 -43 -42 -42 -42
-32 -32 -33 -33 -34 -34 -35 -35 -35 -35 -36 -36 -37 -37 -37 -37 -37 -38 -38 -39 -39 -40 -40 -41 -41 -42 -42 -42 -42 -43 -43 -43 -43 -43 -43 -42 -43 -43 -43 -43 -43 -43 -43 -43 -43 -44 -43 -44 -44 -44 -44 -43 -43 -43
-33 -33 -34 -34 -34 -35 -35 -35 -35 -36 -37 -37 -37 -37 -37 -38 -38 -39 -39 -39 -40 -40 -41 -41 -42 -42 -43 -43 -42 -42 -42 -42 -43 -43 -43 -43 -43 -43 -43 -43 -43 -44 -44 -44 -44 -44 -44 -44 -44 -44 -44 -44 -44 -44
-33 -34 -34 -34 -35 -35 -35 -35 -36 -36 -37 -37 -38 -38 -38 -38 -39 -39 -39 -40 -40 -41 -41 -42 -42 -42 -42 -42 -42 -42 -42 -43 -43 -43 -43 -43 -43 -44 -44 -44 -44 -44 -44 -44 -44 -44 -44 -44 -44 -44 -44 -44 -44 -44
Height
5636 5630 5625 5621 5618 5614 5609 5605 5600 5595 5590 5585 5580 5574 5569 5565 5560 5555 5550 5546 5543 5540 5539 5536 5534 5532 5530 5528 5527 5527 5525 5525 5524 5524 5524 5525 5525 5527 5527 5530 5532 5533 5532 5534 5534 5533 5533 5538 5538 5539 5541 5542 5543 5545
5631 5625 5621 5617 5614 5610 5605 5600 5595 5590 5584 5579 5573 5567 5561 5555 5549 5545 5542 5537 5532 5530 5529 5527 5525 5523 5522 5520 5519 5519 5518 5517 5516 5516 5516 5516 5516 5517 5519 5519 5522 5523 5524 5525 5525 5525 5523 5522 5525 5526 5527 5527 5528 5529
5627 5620 5615 5612 5608 5604 5600 5594 5589 5583 5577 5571 5564 5556 5549 5543 5537 5531 5527 5523 5520 5518 5515 5515 5513 5511 5510 5509 5508 5508 5508 5508 5507 5507 5506 5506 5506 5507 5508 5509 5509 5511 5511 5511 5512 5511 5511 5510 5510 5510 5511 5511 5512 5512
5620 5614 5610 5607 5603 5599 5594 5587 5582 5575 5568 5560 5552 5543 5534 5525 5519 5512 5508 5505 5503 5501 5499 5502 5499 5499 5498 5497 5496 5496 5496 5496 5496 5495 5494 5495 5495 5495 5495 5496 5495 5496 5497 5497 5497 5497 5497 5497 5496 5495 5495 5494 5494 5494
5615 5608 5604 5601 5597 5593 5587 5580 5573 5566 5557 5548 5537 5526 5516 5506 5498 5493 5489 5486 5484 5484 5482 5484 5485 5484 5484 5484 5484 5483 5483 5483 5483 5482 5482 5482 5482 5481 5481 5481 5481 5481 5480 5480 5480 5480 5480 5481 5480 5479 5478 5477 5476 5475
5609 5603 5599 5595 5591 5586 5579 5572 5565 5557 5547 5535 5524 5512 5501 5494 5487 5481 5476 5471 5467 5465 5464 5466 5468 5468 5470 5470 5470 5470 5469 5469 5468 5468 5468 5467 5467 5465 5464 5464 5465 5463 5463 5462 5462 5461 5462 5462 5461 5460 5460 5459 5457 5456
5603 5597 5593 5588 5584 5578 5571 5564 5556 5546 5535 5524 5512 5501 5493 5485 5478 5471 5466 5460 5455 5452 5450 5450 5451 5454 5455 5456 5456 5456 5455 5454 5455 5454 5454 5453 5452 5449 5448 5448 5447 5445 5444 5443 5443 5443 5442 5441 5441 5440 5439 5438 5437 5435
5596 5591 5586 5582 5577 5571 5563 5555 5546 5536 5524 5513 5502 5492 5485 5478 5471 5465 5459 5454 5448 5444 5442 5440 5440 5441 5441 5441 5442 5441 5441 5441 5440 5439 5439 5437 5436 5433 5432 5434 5430 5427 5426 5425 5424 5423 5422 5421 5420 5419 5418 5417 5416 5415
5590 5584 5579 5574 5569 5563 5555 5546 5536 5525 5514 5503 5494 5486 5479 5473 5466 5460 5455 5450 5445 5443 5438 5435 5433 5432 5431 5429 5428 5427 5426 5425 5425 5424 5422 5421 5419 5417 5416 5415 5412 5410 5408 5407 5405 5404 5403 5402 5401 5400 5398 5397 5396 5394
5582 5576 5570 5566 5561 5555 5546 5537 5526 5514 5503 5493 5487 5481 5475 5469 5461 5457 5451 5447 5442 5438 5434 5431 5428 5426 5424 5420 5417 5416 5413 5411 5409 5409 5405 5404 5403 5401 5399 5397 5395 5394 5392 5391 5389 5388 5387 5385 5383 5382 5380 5378 5376 5374
5575 5569 5563 5558 5553 5546 5537 5528 5517 5504 5493 5486 5480 5477 5471 5464 5459 5453 5449 5444 5439 5435 5431 5428 5424 5420 5417 5415 5411 5407 5403 5400 5399 5399 5394 5392 5392 5389 5386 5384 5382 5381 5379 5376 5374 5372 5370 5368 5366 5364 5362 5360 5357 5355
5568 5561 5556 5551 5545 5536 5527 5518 5507 5496 5486 5480 5476 5472 5467 5461 5455 5450 5445 5440 5435 5430 5426 5421 5418 5414 5410 5406 5402 5398 5394 5391 5388 5385 5383 5381 5380 5376 5374 5371 5369 5366 5364 5361 5358 5355 5353 5350 5348 5345 5343 5340 5338 5335
5559 5553 5549 5543 5535 5527 5517 5507 5498 5488 5479 5474 5471 5467 5462 5458 5451 5445 5440 5435 5430 5425 5420 5415 5411 5406 5401 5398 5393 5388 5383 5379 5375 5372 5369 5368 5363 5360 5358 5355 5352 5350 5347 5344 5341 5338 5334 5331 5328 5325 5322 5320 5317 5313
5551 5546 5541 5534 5526 5518 5509 5499 5489 5481 5473 5469 5465 5460 5456 5450 5445 5439 5434 5428 5424 5418 5413 5408 5402 5398 5391 5387 5381 5376 5370 5366 5361 5359 5355 5350 5347 5344 5341 5338 5335 5332 5328 5325 5322 5318 5314 5311 5307 5303 5300 5297 5294 5290
5544 5539 5532 5525 5517 5509 5500 5491 5482 5474 5468 5463 5458 5453 5448 5443 5438 5432 5427 5421 5416 5410 5404 5399 5393 5388 5382 5376 5370 5364 5356 5350 5345 5342 5338 5335 5331 5328 5325 5321 5317 5313 5310 5306 5302 5298 5294 5290 5286 5282 5279 5276 5273 5269
5536 5531 5524 5517 5509 5500 5491 5483 5475 5467 5461 5457 5451 5447 5442 5436 5431 5425 5419 5413 5407 5401 5394 5388 5382 5375 5370 5364 5358 5351 5344 5339 5333 5329 5325 5321 5317 5312 5308 5304 5300 5295 5291 5287 5283 5279 5275 5271 5267 5264 5260 5257 5253 5250
5527 5522 5515 5507 5499 5491 5483 5474 5466 5459 5453 5448 5444 5439 5434 5428 5422 5416 5410 5404 5397 5391 5384 5376 5369 5363 5355 5349 5343 5337 5331 5326 5321 5316 5311 5306 5301 5296 5292 5287 5282 5278 5274 5270 5266 5262 5258 5254 5251 5247 5244 5241 5237 5234
5518 5512 5505 5498 5491 5482 5473 5464 5456 5450 5445 5441 5436 5431 5425 5419 5412 5406 5399 5393 5386 5379 5372 5365 5358 5352 5341 5335 5329 5324 5318 5312 5307 5302 5297 5291 5287 5282 5277 5272 5267 5263 5260 5256 5253 5249 5245 5242 5239 5236 5232 5229 5226 5223
5509 5502 5495 5488 5481 5473 5465 5456 5448 5442 5437 5433 5427 5421 5415 5408 5402 5395 5388 5381 5374 5367 5360 5352 5344 5337 5330 5323 5316 5311 5305 5298 5293 5288 5282 5277 5273 5269 5264 5259 5255 5252 5249 5246 5243 5240 5237 5234 5231 5227 5223 5220 5216 5212
5499 5492 5486 5478 5471 5463 5455 5447 5439 5433 5429 5424 5418 5411 5404 5398 5391 5384 5376 5369 5361 5354 5347 5339 5331 5323 5316 5310 5304 5297 5291 5285 5280 5275 5270 5265 5261 5257 5253 5249 5246 5243 5241 5238 5235 5232 5229 5225 5222 5219 5215 5211 5208 5204
5490 5483 5476 5470 5462 5453 5443 5436 5430 5425 5419 5414 5407 5400 5394 5386 5379 5372 5364 5356 5349 5341 5333 5325 5317 5310 5303 5297 5290 5284 5278 5273 5268 5263 5259 5255 5251 5248 5244 5241 5238 5236 5233 5230 5227 5223 5220 5217 5213 5209 5206 5202 5199 5196
5481 5474 5467 5459 5452 5443 5435 5429 5423 5416 5410 5403 5397 5390 5382 5376 5369 5361 5353 5344 5335 5328 5319 5311 5304 5297 5290 5283 5277 5271 5266 5262 5257 5253 5249 5245 5242 5239 5236 5233 5230 5227 5225 5222 5218 5215 5211 5207 5202 5199 5196 5193 5189 5186
5472 5466 5458 5450 5442 5434 5428 5419 5413 5405 5397 5391 5384 5378 5370 5362 5356 5348 5339 5330 5321 5313 5305 5298 5290 5283 5277 5271 5265 5260 5255 5251 5247 5243 5240 5236 5233 5230 5227 5224 5221 5218 5215 5212 5208 5205 5201 5197 5193 5189 5186 5183 5180 5177
5462 5455 5447 5439 5431 5423 5416 5409 5401 5393 5386 5378 5370 5362 5356 5348 5341 5333 5325 5316 5307 5299 5292 5284 5277 5270 5263 5258 5253 5249 5244 5241 5237 5234 5230 5227 5224 5220 5217 5214 5211 5208 5206 5204 5199 5196 5191 5187 5183 5180 5176 5173 5170 5167
5452 5444 5436 5427 5418 5411 5403 5397 5390 5382 5374 5366 5358 5350 5341 5333 5326 5318 5310 5301 5293 5285 5278 5270 5263 5257 5251 5246 5242 5238 5234 5231 5228 5225 5221 5218 5215 5211 5207 5204 5201 5196 5191 5190 5186 5183 5180 5176 5173 5170 5166 5163 5160 5157
5438 5430 5422 5414 5405 5398 5390 5382 5374 5366 5359 5351 5343 5334 5325 5318 5311 5302 5294 5287 5280 5272 5264 5258 5251 5244 5239 5234 5231 5228 5225 5221 5218 5215 5211 5208 5204 5200 5197 5193 5190 5188 5181 5179 5175 5173 5170 5166 5163 5158 5155 5151 5148 5146
5426 5416 5408 5400 5392 5384 5377 5370 5362 5354 5345 5338 5331 5321 5311 5303 5295 5288 5280 5272 5266 5259 5252 5245 5240 5234 5229 5224 5221 5218 5214 5211 5208 5204 5200 5197 5194 5190 5186 5182 5180 5177 5172 5168 5164 5161 5158 5155 5150 5145 5141 5139 5136 5133
5413 5404 5397 5388 5380 5372 5364 5356 5347 5339 5332 5323 5315 5306 5297 5288 5283 5276 5269 5262 5254 5248 5241 5235 5229 5223 5218 5214 5210 5207 5204 5200 5197 5194 5191 5187 5183 5178 5174 5171 5167 5163 5159 5156 5152 5149 5146 5141 5136 5133 5131 5128 5125 5120
5399 5390 5382 5374 5366 5358 5350 5342 5335 5327 5318 5309 5301 5293 5285 5277 5270 5264 5257 5250 5243 5237 5230 5224 5219 5214 5209 5205 5201 5197 5193 5190 5186 5183 5180 5178 5174 5169 5163 5159 5155 5152 5148 5144 5141 5136 5131 5126 5122 5119 5115 5113 5111 5109
5385 5375 5367 5360 5351 5343 5336 5327 5319 5311 5302 5293 5285 5279 5272 5264 5258 5252 5245 5238 5232 5226 5220 5215 5210 5205 5200 5196 5191 5187 5183 5179 5175 5172 5169 5165 5162 5157 5152 5147 5143 5138 5134 5131 5127 5122 5117 5113 5109 5105 5101 5098 5095 5094
5368 5360 5353 5345 5336 5328 5319 5312 5304 5295 5286 5279 5271 5265 5259 5252 5246 5239 5233 5227 5221 5215 5209 5204 5199 5194 5189 5185 5181 5177 5172 5167 5163 5159 5155 5152 5148 5143 5139 5134 5130 5126 5123 5118 5113 5109 5105 5101 5098 5094 5091 5088 5084 5081
5352 5344 5335 5328 5321 5313 5304 5296 5288 5280 5272 5265 5259 5252 5246 5239 5233 5227 5221 5215 5209 5204 5199 5193 5187 5182 5177 5173 5169 5165 5162 5157 5153 5148 5144 5139 5135 5130 5125 5120 5118 5115 5111 5107 5102 5098 5094 5090 5087 5084 5081 5078 5075 5072
5336 5327 5318 5311 5303 5296 5288 5280 5272 5267 5260 5252 5245 5238 5232 5227 5221 5214 5209 5203 5198 5193 5187 5182 5176 5170 5166 5162 5159 5155 5151 5145 5140 5136 5133 5128 5124 5119 5114 5110 5107 5104 5100 5096 5092 5088 5084 5080 5076 5073 5070 5068 5065 5063
Wind_Speed
24 24 26 29 25 24 27 28 31 34 38 41 42 41 39 36 34 34 33 34 33 31 27 27 26 25 25 24 22 24 29 27 26 29 30 25 27 26 28 26 26 28 32 32 33 35 39 35 37 40 40 42 43 43
24 23 26 27 24 27 28 31 33 36 38 42 44 43 42 42 42 41 39 38 37 37 34 31 30 30 30 29 28 27 26 23 26 32 33 32 33 34 35 36 32 34 34 34 37 38 42 45 44 45 47 48 49 49
24 25 27 24 25 29 32 35 38 42 45 47 49 50 49 47 47 46 44 43 41 39 39 37 34 34 34 34 33 33 33 32 32 33 34 34 34 34 35 37 39 40 43 45 45 46 46 47 49 50 52 53 53 54
26 27 26 26 28 32 37 41 44 47 50 54 56 56 54 54 51 50 49 48 47 46 46 41 40 35 31 33 35 37 37 37 38 40 42 43 43 43 43 44 45 45 46 46 47 49 50 51 53 55 56 57 58 59
28 28 26 28 32 36 40 45 48 52 56 60 61 59 55 50 43 39 40 43 46 48 49 45 43 42 40 38 36 38 41 43 44 45 45 45 45 47 48 49 50 51 52 53 54 55 56 57 58 59 61 62 62 63
29 29 28 32 36 40 45 48 51 55 59 60 59 52 43 38 38 37 36 36 36 37 42 46 44 43 42 41 41 40 39 40 44 47 48 50 50 51 54 54 54 55 56 57 57 58 59 60 60 61 61 62 63 64
30 30 31 34 38 42 45 49 53 58 60 59 55 47 40 39 36 33 32 30 28 28 29 35 41 42 43 43 43 43 43 44 44 44 45 47 50 53 55 57 57 58 58 59 60 60 61 62 62 63 63 63 64 64
32 33 33 36 39 43 47 51 57 59 58 57 51 41 38 37 33 30 27 25 24 22 23 26 31 36 41 44 45 46 47 47 47 48 48 48 49 50 52 52 54 57 58 59 59 60 61 61 60 60 60 60 59 59
34 34 33 36 40 43 49 55 59 60 58 55 46 37 36 34 30 27 26 25 23 20 19 19 21 26 30 37 41 45 48 49 50 50 51 52 52 53 53 54 55 54 53 53 53 53 53 53 54 55 56 56 57 58
35 34 34 36 40 45 52 57 59 59 58 50 39 34 34 30 27 26 26 24 23 21 20 19 19 19 20 23 25 29 32 34 38 40 43 45 45 44 42 41 42 43 44 46 49 50 52 54 54 54 53 53 53 54
35 33 34 37 42 49 54 57 58 58 53 40 33 31 32 32 28 25 25 25 24 22 21 21 22 24 25 26 27 29 30 30 29 28 31 32 31 31 33 35 37 38 40 42 44 45 47 48 50 51 53 54 56 57
36 34 35 40 46 52 56 58 58 54 45 34 28 29 31 33 30 28 27 26 27 26 25 25 26 27 28 29 30 32 34 35 36 37 37 37 35 38 40 42 43 45 46 47 48 49 50 52 53 54 56 58 59 61
35 34 38 44 49 54 56 58 56 51 40 29 28 27 30 34 34 33 30 29 29 30 29 30 31 31 32 32 33 35 36 37 39 39 40 39 41 43 43 44 44 44 45 47 49 50 53 55 57 58 60 61 62 64
31 36 42 47 51 55 56 56 51 45 36 27 27 28 30 35 37 36 33 32 32 33 34 34 35 36 37 37 37 38 40 41 42 40 40 41 41 41 43 44 46 48 50 52 54 55 56 58 59 60 61 61 62 63
34 40 45 49 54 55 56 52 48 42 33 27 30 29 32 36 38 38 36 35 35 37 38 38 39 40 41 42 42 44 45 45 43 42 41 42 43 44 45 46 48 49 50 51 52 53 54 55 56 57 57 57 57 57
38 42 47 52 54 56 53 48 51 41 34 31 29 29 33 37 38 39 39 37 38 40 41 42 43 44 45 46 47 44 44 41 41 40 41 42 43 45 46 47 48 49 49 50 50 50 50 50 50 50 50 50 49 49
41 45 50 53 55 53 48 52 52 39 36 34 30 32 37 38 40 41 41 40 41 43 44 45 47 48 51 50 47 44 41 41 41 43 43 44 46 46 46 46 46 46 46 46 45 44 42 40 39 39 38 38 38 37
44 48 51 52 53 49 52 54 49 40 35 31 32 36 38 40 42 44 43 43 44 46 47 48 50 51 52 49 45 43 42 44 45 45 45 45 44 42 42 41 40 40 37 34 32 30 29 29 28 28 28 29 31 32
45 48 50 51 49 53 54 51 45 38 31 32 37 40 41 42 44 45 45 45 47 47 48 51 54 52 47 44 44 44 45 45 45 44 43 42 40 38 36 35 34 31 28 25 24 24 24 24 23 22 24 25 27 30
47 48 48 46 52 53 51 47 44 36 33 37 43 43 43 45 46 46 47 48 49 50 52 54 51 47 45 44 45 45 44 43 42 41 39 37 35 33 31 29 27 26 26 25 24 24 24 26 25 23 24 25 25 27
47 46 43 51 52 52 49 46 41 37 40 45 49 47 46 47 47 48 49 50 50 53 54 51 47 45 45 45 44 44 41 39 38 37 35 32 30 28 26 25 25 26 25 26 27 27 28 27 27 27 27 27 26 26
41 44 47 51 51 50 48 43 40 43 48 48 48 48 48 48 49 50 50 51 54 54 51 47 45 45 45 44 43 40 37 35 34 33 31 30 28 27 26 26 27 27 27 28 29 29 30 31 32 32 30 29 29 28
44 47 50 51 51 51 48 48 46 47 48 50 51 51 51 53 52 51 53 55 55 51 47 45 45 45 44 41 39 36 34 32 31 29 28 28 28 28 29 30 31 31 30 31 32 31 31 33 34 36 34 31 31 30
48 53 54 53 53 52 54 50 48 49 50 53 54 54 54 55 54 55 57 55 51 47 46 45 45 44 42 39 36 33 32 30 29 28 28 28 29 31 32 33 34 36 35 32 31 29 30 30 29 29 30 28 28 29
52 56 56 56 56 57 57 54 51 51 53 54 56 57 58 58 59 59 56 52 48 46 46 46 45 43 40 37 34 31 31 29 29 28 29 29 30 32 34 35 35 37 40 36 35 33 34 33 32 31 30 30 29 29
56 59 60 60 60 59 59 56 57 57 56 57 59 60 61 62 61 58 53 48 47 47 47 45 44 42 40 37 33 31 29 29 29 29 31 30 32 34 36 37 37 35 40 39 39 38 37 36 35 35 35 35 35 35
59 60 62 62 61 61 58 58 58 58 59 60 60 61 64 63 60 54 51 49 49 47 46 44 42 40 38 36 33 31 30 30 30 31 33 33 33 35 36 37 36 36 38 39 39 37 36 36 37 39 40 40 42 42
60 61 61 61 60 60 60 59 60 60 61 62 63 63 63 58 53 50 48 48 47 46 44 42 39 36 35 34 33 32 31 31 32 32 33 33 34 35 36 36 37 39 40 39 39 38 38 39 42 41 40 40 39 40
62 62 63 61 61 61 61 61 61 61 63 63 63 60 55 52 50 49 48 47 47 44 40 38 36 35 34 34 33 32 32 32 33 33 33 32 33 35 37 38 40 40 41 41 40 40 40 41 42 41 40 38 36 36
62 62 63 61 62 62 62 63 63 64 64 64 59 53 50 49 48 48 48 47 43 40 39 37 35 35 34 34 34 34 35 35 36 35 35 34 34 35 38 40 41 41 41 40 38 38 38 37 36 36 36 36 35 34
63 63 62 62 63 62 63 64 65 65 63 56 52 50 49 49 48 47 47 44 41 39 38 36 35 35 35 35 35 35 35 36 36 36 36 35 37 38 39 40 40 39 36 35 34 33 34 33 32 32 32 32 32 32
64 62 64 64 63 64 66 66 65 59 53 51 50 49 49 49 47 45 44 42 40 39 37 36 35 35 36 35 33 33 32 33 34 36 37 38 38 38 38 38 36 34 34 33 33 33 33 33 32 31 30 30 30 30
63 63 64 66 67 67 67 64 57 52 50 49 49 49 50 48 45 45 44 42 40 39 37 36 36 35 35 34 35 36 37 37 38 37 35 33 33 34 34 34 31 28 27 26 26 26 26 26 26 26 26 26 26 26
Wind_Direction
326 338 342 340 334 337 340 340 341 342 342 340 337 334 328 323 320 317 312 307 301 296 295 295 294 292 294 294 289 277 266 258 258 258 253 249 251 250 251 252 252 251 253 255 256 260 263 262 260 261 264 265 265 264
326 336 336 333 328 331 333 332 333 335 335 332 330 325 321 317 314 310 306 302 299 297 293 284 280 279 278 278 279 281 280 276 273 262 257 254 254 253 253 252 251 254 257 257 255 258 261 263 263 265 267 268 269 270
324 332 332 324 323 326 327 328 329 329 330 328 325 321 316 309 304 300 296 293 290 288 288 287 282 275 272 271 271 269 269 269 270 271 269 267 266 267 266 265 263 261 260 259 260 261 262 264 266 267 268 269 270 271
323 331 327 320 321 322 322 324 325 325 326 326 324 321 315 308 301 294 289 285 282 281 280 280 280 277 272 268 266 266 265 264 263 262 263 263 264 265 265 264 263 263 262 262 261 261 262 263 265 266 267 268 269 270
323 328 321 316 318 320 321 321 323 325 327 326 324 321 316 310 307 304 297 287 279 274 273 272 271 271 270 270 271 268 265 264 262 262 263 263 262 263 264 264 264 265 264 264 264 263 264 265 265 267 268 270 271 272
325 326 319 315 315 316 318 321 324 326 327 328 328 327 322 320 316 313 306 299 290 280 269 266 265 265 265 266 267 267 268 267 265 263 263 263 264 265 265 265 267 267 268 267 268 268 268 268 269 269 270 270 271 272
324 325 320 315 313 315 319 323 326 328 331 329 333 329 325 324 324 321 319 315 307 293 281 269 262 260 261 262 263 264 264 265 266 266 266 266 265 265 266 267 268 269 269 269 270 270 270 270 271 271 271 271 272 272
326 323 319 316 316 318 322 326 328 330 331 333 335 330 330 329 329 330 330 330 326 315 297 282 271 266 262 262 262 263 264 264 265 266 266 266 266 267 268 268 269 269 270 270 270 271 271 271 271 271 271 272 271 272
326 322 319 318 318 322 325 328 329 332 332 335 333 329 332 334 333 333 335 338 340 338 330 315 299 288 280 273 270 269 268 268 268 268 268 268 269 270 272 271 270 270 270 269 269 269 269 269 270 271 272 272 273 273
325 323 322 321 322 325 328 331 332 332 333 333 329 330 332 337 337 339 339 338 338 335 332 329 324 316 310 301 294 288 283 280 277 275 274 273 273 273 272 269 266 265 266 267 268 270 271 273 273 274 273 272 272 271
323 322 321 322 325 328 332 333 332 332 333 329 326 328 337 342 339 337 337 339 339 334 329 324 317 312 308 305 301 298 296 293 289 286 282 280 279 276 272 270 270 271 271 272 272 272 272 272 272 272 272 271 272 272
322 322 322 326 329 332 334 334 336 334 334 329 324 326 337 341 338 337 336 337 337 334 329 325 321 315 310 306 302 297 294 292 291 288 286 284 281 277 275 274 275 275 274 274 273 272 271 271 272 272 272 272 272 272
321 322 326 329 333 334 335 335 336 336 335 327 322 321 330 337 340 336 333 332 332 331 327 324 321 317 313 310 306 303 299 295 292 288 286 285 282 281 281 280 279 278 277 277 277 277 277 276 275 275 274 274 274 273
322 325 328 331 333 334 334 335 336 337 333 326 321 316 323 330 333 332 328 326 326 325 323 322 319 317 315 314 312 309 305 300 296 294 292 289 287 285 284 284 283 283 282 281 280 279 279 278 278 278 278 277 277 277
325 326 329 331 333 334 332 333 336 334 327 319 318 314 320 325 328 328 324 322 321 320 319 318 317 316 315 313 312 311 308 305 304 301 297 295 292 291 288 286 284 283 283 283 282 281 281 280 280 280 280 281 281 280
324 327 329 330 333 330 332 333 333 328 320 314 311 313 318 322 324 324 323 320 318 318 317 316 316 315 314 314 314 312 308 306 302 299 296 295 293 292 290 289 288 287 287 287 286 286 285 284 284 284 283 283 282 282
325 327 329 331 330 330 331 331 331 324 317 312 309 314 318 320 322 324 322 320 318 317 316 316 316 317 315 313 313 310 308 304 302 300 298 296 295 294 294 293 293 292 292 291 291 291 290 289 288 287 287 287 286 285
326 327 329 329 328 331 331 331 329 322 315 310 312 316 320 321 322 323 322 320 318 318 318 316 316 317 313 313 310 309 307 304 303 301 300 298 298 298 296 295 294 294 295 296 296 296 295 294 296 297 296 293 291 289
327 328 327 325 328 330 331 330 328 319 311 311 319 322 322 320 320 321 320 320 319 319 318 317 316 314 312 309 308 308 306 305 304 303 302 302 301 299 298 297 297 298 299 300 299 298 299 302 304 305 302 301 299 298
327 326 324 325 329 329 329 329 324 315 308 316 321 322 321 320 321 321 320 319 319 319 317 317 315 313 311 309 308 307 306 306 304 304 304 303 302 300 298 298 298 297 297 298 300 302 303 303 303 303 302 304 306 306
325 323 324 328 327 329 331 329 321 311 309 315 318 319 321 321 321 321 320 319 318 317 319 316 314 312 310 310 309 308 307 306 304 305 304 303 301 300 298 296 295 295 297 298 302 305 305 304 304 304 303 302 302 301
325 325 325 325 326 332 330 328 317 312 312 314 316 319 320 320 320 319 319 319 319 320 317 316 314 312 312 311 310 308 306 304 304 304 303 302 300 298 297 297 298 298 298 300 301 304 306 304 302 302 301 299 299 300
325 325 325 326 330 332 328 322 318 316 316 317 319 320 320 320 321 321 321 321 321 318 318 316 315 314 313 312 310 308 305 302 302 302 301 301 299 298 298 297 297 299 301 303 303 303 301 299 298 298 300 300 299 300
324 326 328 330 330 328 327 323 319 317 319 319 319 320 321 321 322 322 323 322 320 319 317 316 316 316 315 314 311 307 302 301 301 300 300 299 297 297 297 297 298 298 299 299 298 297 301 301 297 296 298 298 297 299
323 327 328 329 328 327 325 324 321 319 319 320 319 320 321 321 323 323 322 321 320 318 319 319 319 317 315 313 310 304 300 298 297 298 297 296 295 295 295 296 298 300 303 307 309 308 309 307 302 298 295 293 296 299
320 324 327 327 325 324 324 322 321 321 321 320 321 321 320 322 323 322 322 322 321 321 321 320 317 315 314 312 309 304 301 297 295 295 295 295 295 295 296 298 299 300 300 303 302 303 303 301 296 294 294 294 297 300
321 323 324 324 322 322 320 320 319 319 318 319 320 320 320 322 322 322 323 322 322 321 320 318 316 314 311 308 306 304 300 297 296 296 296 297 296 295 297 297 299 298 296 297 299 300 300 300 298 296 296 298 298 298
320 319 320 320 319 319 318 318 318 317 318 319 320 320 320 321 321 321 320 320 319 319 318 316 315 313 310 307 305 304 301 298 297 296 295 296 296 298 298 300 299 298 299 300 300 300 300 295 291 292 293 293 292 291
316 318 318 319 318 317 316 316 316 317 317 318 318 319 318 318 318 319 319 318 318 319 317 314 313 311 308 306 304 303 301 300 299 299 300 301 300 299 298 298 297 298 297 297 298 299 296 294 295 295 294 292 289 286
316 317 316 316 315 315 315 315 316 316 317 316 317 317 317 317 317 317 317 317 318 317 314 313 311 308 306 304 304 303 302 301 300 301 301 300 299 297 296 296 298 299 300 304 303 300 299 297 297 297 297 296 295 293
315 315 315 314 314 314 313 314 315 316 315 316 315 316 316 316 316 317 317 317 317 316 315 313 310 308 307 306 307 306 304 303 302 303 304 303 302 301 302 302 302 305 307 304 304 303 302 302 301 299 299 299 299 298
314 314 312 313 313 313 313 315 315 314 314 314 315 315 315 316 316 317 317 317 318 317 316 315 313 310 309 309 308 306 306 307 309 307 306 306 307 307 307 307 309 309 307 305 301 299 299 299 298 296 295 294 294 295
313 312 312 311 312 312 313 312 313 314 314 314 315 315 314 315 316 316 316 317 317 317 319 315 312 312 311 311 311 312 314 312 309 309 309 309 308 308 309 309 313 316 315 313 312 313 313 314 312 310 307 302 298 294